EDT,Max TemperatureF,Mean TemperatureF,Min TemperatureF,Max Dew PointF,MeanDew PointF,Min DewpointF,Max Humidity, Mean Humidity, Min Humidity, Max Sea Level PressureIn, Mean Sea Level PressureIn, Min Sea Level PressureIn, Max VisibilityMiles, Mean VisibilityMiles, Min VisibilityMiles, Max Wind SpeedMPH, Mean Wind SpeedMPH, Max Gust SpeedMPH,PrecipitationIn, CloudCover, Events, WindDirDegrees
2013-5-1,59,54,49,50,48,46,93,80,61,30.34,30.29,30.22,10,10,3,12,4,16,0.00,8,Rain,92
2013-5-2,55,52,48,53,49,47,95,93,90,30.35,30.31,30.28,10,5,0,10,5,18,0.01,8,Fog-Rain,117
2013-5-3,57,51,45,48,43,38,94,74,51,30.29,30.22,30.17,10,8,0,20,7,25,0.00,6,,116
2013-5-4,52,46,40,43,38,31,93,76,45,30.16,30.11,30.04,10,9,1,18,10,26,0.00,7,Rain,115
2013-5-5,48,44,41,47,42,35,94,89,74,30.08,29.99,29.91,10,6,0,26,9,36,1.21,8,Rain,108
2013-5-6,54,50,45,51,48,44,95,93,79,29.94,29.89,29.84,10,5,0,31,12,38,1.13,7,Fog-Rain,116
2013-5-7,54,50,45,50,46,44,95,91,72,29.96,29.92,29.89,10,6,0,10,2,17,0.21,7,Fog-Rain,326
2013-5-8,59,51,43,50,46,42,94,82,63,30.07,29.99,29.93,10,8,0,16,4,23,0.03,7,Fog-Rain,276
2013-5-9,70,61,52,48,45,40,85,55,35,30.17,30.12,30.04,10,10,10,16,9,24,0.00,3,,283
2013-5-10,73,62,52,57,51,46,94,71,43,30.16,30.10,30.03,10,9,0,16,3,21,0.35,4,Fog-Rain,191
2013-5-11,66,61,56,53,50,46,87,66,51,30.03,29.95,29.89,10,10,10,14,6,23,0.00,7,Rain,268
2013-5-12,55,50,44,45,32,23,82,52,30,30.07,29.98,29.90,10,10,5,20,11,36,0.00,3,Rain,306
2013-5-13,54,46,39,29,22,16,63,40,23,30.19,30.11,30.06,10,10,10,20,7,30,0.00,1,,311
2013-5-14,69,52,34,41,30,22,78,44,23,30.23,30.17,30.10,10,10,10,14,4,18,0.00,1,,237
2013-5-15,80,70,61,49,46,41,62,45,26,30.14,30.09,30.04,10,10,10,36,19,51,0.00,0,,271
2013-5-16,72,67,62,48,43,34,53,43,26,30.13,30.09,30.04,10,10,10,21,11,30,0.10,0,,285
2013-5-17,71,63,55,59,53,45,93,73,49,30.20,30.16,30.10,10,8,0,8,2,,0.55,5,Rain,324
2013-5-18,62,59,56,60,57,54,94,93,85,30.22,30.18,30.14,10,4,0,6,1,,0.13,7,Fog-Rain,148
2013-5-19,67,63,59,62,59,58,95,90,78,30.19,30.15,30.11,10,5,0,8,1,,0.76,8,Fog-Rain,141
2013-5-20,73,66,59,62,58,54,94,82,53,30.20,30.16,30.13,10,7,0,13,2,20,0.03,6,Fog-Rain,296
2013-5-21,78,67,56,62,57,52,95,72,41,30.16,30.11,30.06,10,8,0,16,3,23,0.00,5,Fog-Rain,277
2013-5-22,74,65,56,63,57,52,93,79,55,30.10,30.06,30.01,10,9,2,15,2,20,0.60,4,Rain,145
2013-5-23,73,64,56,57,53,45,94,74,35,30.05,29.99,29.93,10,8,0,24,5,36,0.08,6,Fog-Rain,283
2013-5-24,57,50,44,51,37,25,86,58,31,30.22,30.09,29.93,10,10,5,30,14,43,0.00,4,Rain,314
2013-5-25,63,54,44,32,26,15,60,38,16,30.32,30.27,30.23,10,10,10,17,10,29,0.00,1,,317
2013-5-26,65,57,49,44,37,27,73,48,30,30.31,30.27,30.23,10,10,10,14,6,20,0.00,5,,318
2013-5-27,71,59,47,53,49,44,90,68,52,30.32,30.27,30.22,10,10,7,9,2,,0.00,3,,150
2013-5-28,73,64,56,58,54,48,87,69,40,30.30,30.26,30.21,10,10,5,12,2,16,0.01,3,Rain,144
2013-5-29,75,66,58,60,56,46,93,68,36,30.32,30.28,30.24,10,10,2,10,2,,0.00,2,,138
2013-5-30,75,66,56,58,56,53,91,69,48,30.36,30.31,30.28,10,10,7,9,2,,0.00,1,,138
2013-5-31,75,66,57,58,55,53,86,65,49,30.31,30.27,30.22,10,10,10,9,2,17,0.00,1,,152